This is the latest recevied weather packets stored in our database for station/object N8SDR. If no packets are shown the sender has not sent any weather packets the latest 10 day(s).
| Time | Temp. | Humidity | Pressure | Rain* | Wind** | Luminosity | Snow |
|---|---|---|---|---|---|---|---|
| 1777415923 | 22.78° C | 68% | 1008.1 hPa | 0 mm | - | 124 W/m² | - |
| 1777415619 | 22.78° C | 67% | 1008.4 hPa | 0 mm | - | 125 W/m² | - |
| 1777415315 | 22.78° C | 68% | 1008.4 hPa | 0 mm | - | 138 W/m² | - |
| 1777415010 | 22.78° C | 67% | 1008.8 hPa | 0 mm | - | 152 W/m² | - |
| 1777414709 | 22.78° C | 66% | 1009 hPa | 0 mm | - | 186 W/m² | - |
| 1777414406 | 23.33° C | 65% | 1009.4 hPa | 0 mm | - | 170 W/m² | - |
| 1777414105 | 23.33° C | 65% | 1009.3 hPa | 0 mm | - | 181 W/m² | - |
| 1777413800 | 23.33° C | 65% | 1009.5 hPa | 0 mm | - | 211 W/m² | - |
| 1777413495 | 23.33° C | 66% | 1009.4 hPa | 0 mm | - | 163 W/m² | - |
| 1777413192 | 23.89° C | 63% | 1009.4 hPa | 0 mm | - | 185 W/m² | - |
| 1777412887 | 23.33° C | 65% | 1009.3 hPa | 0 mm | - | 186 W/m² | - |
| 1777412581 | 23.89° C | 64% | 1009.4 hPa | 0 mm | - | 269 W/m² | - |
| 1777412278 | 23.89° C | 61% | 1009.3 hPa | 0 mm | - | 252 W/m² | - |
| 1777411975 | 23.89° C | 62% | 1009.3 hPa | 0 mm | - | 144 W/m² | - |
| 1777411674 | 23.89° C | 59% | 1009.3 hPa | 0 mm | - | 359 W/m² | - |
| 1777411369 | 24.44° C | 59% | 1009.4 hPa | 0 mm | - | 423 W/m² | - |
| 1777411068 | 24.44° C | 60% | 1009.5 hPa | 0 mm | - | 420 W/m² | - |
| 1777410764 | 23.89° C | 61% | 1009.6 hPa | 0 mm | - | 349 W/m² | - |
| 1777410462 | 24.44° C | 59% | 1009.8 hPa | 0 mm | - | 457 W/m² | - |
| 1777410162 | 24.44° C | 63% | 1009.7 hPa | 0 mm | - | 509 W/m² | - |
| 1777409857 | 23.89° C | 62% | 1009.6 hPa | 0 mm | - | 189 W/m² | - |
| 1777409553 | 23.89° C | 63% | 1009.5 hPa | 0 mm | - | 576 W/m² | - |
| 1777409248 | 24.44° C | 61% | 1009.5 hPa | 0 mm | - | 108 W/m² | - |
* Rain latest hour (hover to see other rain measurements)
** Current wind speed in m/s (hover to see current wind gust speed)